SPACEBEE-24 (46952 NORAD) Tracking and Keplerian Element Data

This shows tracking and keplerian element data for the satellite.

Feedback or suggestion? Click here.




ElementValue
Catalog46952
NameSPACEBEE-24
Epoch Orbit894
Epoch Day17.95572845
Epoch Year2021
RAAN157.3142
Inclination97.3733
Eccentricity0.0016605
Argument of Perigee105.9438
Mean Anonmoly254.3627
Mean Motion15.2094524
Decay Rate3.882E-05
L11 46952U 20085Z 21017.95572845 .00003882 00000-0 17784-3 0 9998
L22 46952 97.3733 157.3142 0016605 105.9438 254.3627 15.20945240 8943

Live tracking and technical data element details for SPACEBEE-24 (NORAD 46952). SPACEBEE-24 can be tracked NOW for your location showing map with azimuth and elevation plus other details from your city location.

Track the satellite on the map from your city or location and see movement details for azimuth, elevation, latitude, longitude, range, height, and movement on the map or in text.







IsCatalogInMostPopularTable: catalog: 46952, numindb: 21
Update: records affected: 1



GetName: 46952 SPACEBEE-24

Hit Count: updated at: Tue, 19 Jan 2021 02:58:45 GMT